Location: Chippewa Lake
(41.0698°N, 81.9010°W)
Time: 19:52:27
(UTC+00:00)

Lacrosse 5 - Pass Details

Date: 09 May 2021
Orbit: 715 x 724 km, 57.0° (Epoch: 15 June)

Event Time Altitude Azimuth Distance (km) Brightness Sun altitude
Exits shadow 07:26:52 71° 277° (W) 756 1.8 -24.9°
Maximum altitude 07:27:13 75° 316° (NW) 743 1.8 -24.9°
Drops below altitude 10° 07:32:18 10° 42° (NE) 2,206 5.4 -24.4°
Sets 07:34:42 0° 44° (NE) 3,130 6.5 -24.1°
